Location: Ostrava
(49.8330°N, 18.2830°E)
Time: 12:40:29
(UTC+01:00)

ISS - Visible Passes

Search period start: 10 December 2019 00:00
Search period end: 20 December 2019 00:00
Orbit: 411 x 421 km, 51.6° (Epoch: 10 December)

Date Brightness Start Highest point End Pass type
(mag) Time Alt. Az. Time Alt. Az. Time Alt. Az.
10 Dec -2.1 16:50:42 10° W 16:53:49 36° SSW 16:56:56 10° SE visible
11 Dec -0.5 17:40:17 10° WSW 17:41:34 12° SW 17:42:51 10° SSW visible
12 Dec -0.7 16:50:56 10° W 16:53:17 18° SW 16:55:38 10° S visible
